Weather History for KMMH - November, 2012

Change the Weather History Date:

Wednesday, November 21, 2012

  Actual Average Record
Temperature  
Mean Temperature 40 °F -  
Max Temperature 55 °F 44 °F 60 °F (2002)
Min Temperature 26 °F 29 °F 0 °F (2011)
Degree Days  
Heating Degree Days 24    
Moisture  
Dew Point 25 °F    
Average Humidity 53    
Maximum Humidity 93    
Minimum Humidity 20    
Precipitation  
Precipitation 0.00 in - - ()
Sea Level Pressure  
Sea Level Pressure 30.16 in    
Wind  
Wind Speed 10 mph (SW)    
Max Wind Speed 28 mph    
Max Gust Speed 44 mph    
Visibility 10 miles    
Events      
Averages and records for this station are not official NWS values.
T = Trace of Precipitation, MM = Missing Value Source: NWS Daily Summary

Daily Weather History Graph

Daily Weather History Graph

Search for Another Location

Airport or City:

Trip Planner

Search our weather history database for the weather conditions in past years. The results will help you decide how hot, cold, wet, or windy it might be!

Date:

Astronomy

Nov. 21, 2012 Rise Set
Actual Time 6:42 AM PST 4:40 PM PST
Civil Twilight 6:13 AM PST 5:08 PM PST
Nautical Twilight 5:41 AM PST 5:40 PM PST
Astronomical Twilight 5:10 AM PST 6:11 PM PST
Moon 12:53 PM PST (11/21) 12:13 AM PST (11/21)
Length of Visible Light 10h 54m
Length of Day
9h 58m
Waxing Gibbous, 63% of the Moon is Illuminated
Nov 21
Waxing Gibbous
Nov 28
Full
Dec 6
Last Quarter
Dec 13
New
Dec 19
First Quarter

Hourly Weather History & Observations

Time (PST) Temp. Windchill Dew Point Humidity Pressure Visibility Wind Dir Wind Speed Gust Speed Precip Events Conditions
12:15 AM 33.8 °F 30.8 °F 28.4 °F 81% 30.15 in 10.0 mi West 3.5 mph - N/A   Scattered Clouds
12:35 AM 30.2 °F 25.4 °F 28.4 °F 93% 30.15 in 10.0 mi NNW 4.6 mph - N/A   Scattered Clouds
12:55 AM 30.2 °F - 26.6 °F 86% 30.15 in 10.0 mi North - - N/A   Scattered Clouds
1:15 AM 32.0 °F 26.4 °F 28.4 °F 87% 30.15 in 10.0 mi West 5.8 mph - N/A   Clear
1:35 AM 32.0 °F 27.5 °F 28.4 °F 87% 30.15 in 10.0 mi East 4.6 mph - N/A   Clear
1:55 AM 33.8 °F 25.8 °F 26.6 °F 75% 30.15 in 10.0 mi ESE 10.4 mph 16.1 mph N/A   Clear
2:15 AM 32.0 °F 27.5 °F 28.4 °F 87% 30.15 in 10.0 mi WSW 4.6 mph - N/A   Scattered Clouds
2:35 AM 33.8 °F 29.6 °F 26.6 °F 75% 30.14 in 10.0 mi East 4.6 mph - N/A   Scattered Clouds
2:55 AM 35.6 °F 29.2 °F 28.4 °F 75% 30.13 in 10.0 mi East 8.1 mph - N/A   Scattered Clouds
3:15 AM 35.6 °F 28.0 °F 26.6 °F 70% 30.12 in 10.0 mi ESE 10.4 mph 16.1 mph N/A   Scattered Clouds
3:55 AM 44.6 °F 38.8 °F 21.2 °F 39% 30.11 in 10.0 mi SSW 11.5 mph 31.1 mph N/A   Mostly Cloudy
4:15 AM 42.8 °F 40.1 °F 23.0 °F 46% 30.12 in 10.0 mi West 4.6 mph - N/A   Mostly Cloudy
4:35 AM 39.2 °F 34.2 °F 24.8 °F 56% 30.11 in 10.0 mi ENE 6.9 mph - N/A   Mostly Cloudy
4:55 AM 46.4 °F 38.5 °F 24.8 °F 43% 30.11 in 10.0 mi SSW 21.9 mph 31.1 mph N/A   Mostly Cloudy
5:15 AM 46.4 °F 38.7 °F 26.6 °F 46% 30.11 in 10.0 mi South 20.7 mph 41.4 mph N/A   Mostly Cloudy
5:35 AM 46.4 °F 40.7 °F 24.8 °F 43% 30.11 in 10.0 mi SSW 12.7 mph 32.2 mph N/A   Mostly Cloudy
5:55 AM 48.2 °F - 26.6 °F 43% 30.11 in 10.0 mi WSW 5.8 mph 33.4 mph N/A   Overcast
6:15 AM 46.4 °F 39.8 °F 26.6 °F 46% 30.11 in 10.0 mi SSW 16.1 mph 35.7 mph N/A   Mostly Cloudy
6:35 AM 46.4 °F 37.5 °F 26.6 °F 46% 30.11 in 10.0 mi South 27.6 mph 43.7 mph N/A   Scattered Clouds
6:55 AM 46.4 °F 38.5 °F 28.4 °F 50% 30.13 in 10.0 mi SSW 21.9 mph 32.2 mph N/A   Mostly Cloudy
7:15 AM 46.4 °F 39.8 °F 28.4 °F 50% 30.12 in 10.0 mi South 16.1 mph 32.2 mph N/A   Overcast
7:35 AM 48.2 °F - 30.2 °F 50% 30.13 in 10.0 mi SSW 16.1 mph 34.5 mph N/A   Mostly Cloudy
7:55 AM 46.4 °F 39.2 °F 30.2 °F 53% 30.14 in 10.0 mi SSW 18.4 mph 26.5 mph N/A   Overcast
8:15 AM 48.2 °F - 28.4 °F 46% 30.15 in 10.0 mi SSW 13.8 mph 26.5 mph N/A   Mostly Cloudy
8:55 AM 48.2 °F - 30.2 °F 50% 30.16 in 10.0 mi SSW 10.4 mph 28.8 mph N/A   Overcast
9:15 AM 50.0 °F - 30.2 °F 47% 30.16 in 10.0 mi SW 12.7 mph 28.8 mph N/A   Mostly Cloudy
9:35 AM 50.0 °F - 30.2 °F 47% 30.16 in 10.0 mi SSW 19.6 mph 29.9 mph N/A   Mostly Cloudy
9:55 AM 50.0 °F - 30.2 °F 47% 30.17 in 10.0 mi SW 16.1 mph 28.8 mph N/A   Mostly Cloudy
10:15 AM 51.8 °F - 30.2 °F 44% 30.17 in 10.0 mi SW 21.9 mph 26.5 mph N/A   Scattered Clouds
10:35 AM 51.8 °F - 32.0 °F 47% 30.18 in 10.0 mi SSW 17.3 mph 26.5 mph N/A   Clear
10:55 AM 50.0 °F - 32.0 °F 50% 30.18 in 10.0 mi West 11.5 mph 19.6 mph N/A   Clear
11:15 AM 50.0 °F - 32.0 °F 50% 30.18 in 10.0 mi SW 5.8 mph - N/A   Clear
11:35 AM 51.8 °F - 28.4 °F 41% 30.16 in 10.0 mi SSW 17.3 mph 27.6 mph N/A   Clear
11:55 AM 51.8 °F - 30.2 °F 44% 30.15 in 10.0 mi SSW 8.1 mph 32.2 mph N/A   Clear
12:15 PM 53.6 °F - 30.2 °F 41% 30.15 in 10.0 mi SW 15.0 mph - N/A   Clear
12:35 PM 53.6 °F - 30.2 °F 41% 30.14 in 10.0 mi WSW 16.1 mph 28.8 mph N/A   Clear
12:55 PM 53.6 °F - 28.4 °F 38% 30.13 in 10.0 mi West 17.3 mph 28.8 mph N/A   Clear
1:15 PM 55.4 °F - 24.8 °F 31% 30.13 in 10.0 mi SW 13.8 mph 34.5 mph N/A   Clear
1:55 PM 53.6 °F - 24.8 °F 33% 30.14 in 10.0 mi West 13.8 mph 27.6 mph N/A   Clear
2:15 PM 53.6 °F - 30.2 °F 41% 30.14 in 10.0 mi WNW 13.8 mph 18.4 mph N/A   Clear
2:35 PM 51.8 °F - 28.4 °F 41% 30.14 in 10.0 mi West 13.8 mph 25.3 mph N/A   Clear
2:55 PM 53.6 °F - 24.8 °F 33% 30.14 in 10.0 mi West 15.0 mph 20.7 mph N/A   Clear
3:15 PM 51.8 °F - 21.2 °F 30% 30.13 in 10.0 mi West 18.4 mph 28.8 mph N/A   Clear
3:35 PM 55.4 °F - 14.0 °F 20% 30.13 in 10.0 mi WNW 15.0 mph 28.8 mph N/A   Clear
3:55 PM 51.8 °F - 15.8 °F 24% 30.13 in 10.0 mi West 11.5 mph 19.6 mph N/A   Clear
4:15 PM 50.0 °F - 17.6 °F 28% 30.14 in 10.0 mi WNW 16.1 mph 20.7 mph N/A   Clear
4:35 PM 48.2 °F - 23.0 °F 37% 30.14 in 10.0 mi WNW 15.0 mph 21.9 mph N/A   Clear
4:55 PM 46.4 °F 41.1 °F 17.6 °F 32% 30.15 in 10.0 mi NNW 11.5 mph 18.4 mph N/A   Clear
5:15 PM 46.4 °F 40.7 °F 17.6 °F 32% 30.15 in 10.0 mi NW 12.7 mph 16.1 mph N/A   Clear
5:35 PM 46.4 °F 41.9 °F 17.6 °F 32% 30.16 in 10.0 mi NW 9.2 mph 17.3 mph N/A   Clear
5:55 PM 42.8 °F 38.6 °F 23.0 °F 46% 30.18 in 10.0 mi ESE 6.9 mph - N/A   Clear
6:15 PM 42.8 °F 38.6 °F 23.0 °F 46% 30.20 in 10.0 mi ESE 6.9 mph - N/A   Clear
6:35 PM 42.8 °F - 23.0 °F 46% 30.19 in 10.0 mi Calm Calm - N/A   Clear
6:55 PM 41.0 °F - 23.0 °F 49% 30.19 in 10.0 mi Calm Calm - N/A   Clear
7:15 PM 37.4 °F 34.9 °F 23.0 °F 56% 30.19 in 10.0 mi NNE 3.5 mph - N/A   Clear
7:35 PM 37.4 °F - 23.0 °F 56% 30.19 in 10.0 mi Calm Calm - N/A   Clear
7:55 PM 33.8 °F 28.6 °F 23.0 °F 65% 30.20 in 10.0 mi SE 5.8 mph - N/A   Clear
8:15 PM 32.0 °F - 23.0 °F 69% 30.20 in 10.0 mi North - - N/A   Clear
8:35 PM 32.0 °F 25.6 °F 23.0 °F 69% 30.21 in 10.0 mi West 6.9 mph - N/A   Clear
8:55 PM 32.0 °F - 23.0 °F 69% 30.22 in 10.0 mi Calm Calm - N/A   Clear
9:15 PM 32.0 °F - 23.0 °F 69% 30.22 in 10.0 mi Calm Calm - N/A   Clear
9:35 PM 32.0 °F - 21.2 °F 64% 30.22 in 10.0 mi Calm Calm - N/A   Clear
9:55 PM 32.0 °F 26.4 °F 21.2 °F 64% 30.23 in 10.0 mi North 5.8 mph - N/A   Clear
10:15 PM 30.2 °F - 23.0 °F 75% 30.23 in 10.0 mi North - - N/A   Clear
10:35 PM 28.4 °F 22.2 °F 21.2 °F 74% 30.23 in 10.0 mi North 5.8 mph - N/A   Clear
11:15 PM 30.2 °F - 21.2 °F 69% 30.24 in 10.0 mi Calm Calm - N/A   Clear
11:35 PM 26.6 °F - 19.4 °F 74% 30.24 in 10.0 mi North - - N/A   Clear
11:55 PM 28.4 °F - 19.4 °F 69% 30.24 in 10.0 mi North - - N/A   Clear